Time,TemperatureF,DewpointF,PressureIn,WindDirection,WindDirectionDegrees,WindSpeedMPH,WindSpeedGustMPH,Humidity,HourlyPrecipIn,Conditions,Clouds,dailyrainin,SoftwareType,DateUTC
2013-10-12 00:24:00,56.0,54.0,30.04,ESE,110,0.0,-999.0,92,-99.99,,,-99.99,,2013-10-12 04:24:00,
2013-10-12 00:54:00,55.0,53.0,30.04,ESE,110,0.0,-999.0,93,-99.99,,,-99.99,,2013-10-12 04:54:00,
2013-10-12 01:23:00,54.0,52.0,30.03,ESE,110,0.0,-999.0,94,-99.99,,,-99.99,,2013-10-12 05:23:00,
2013-10-12 01:52:00,53.0,52.0,30.03,ESE,110,0.0,-999.0,95,-99.99,,,-99.99,,2013-10-12 05:52:00,
2013-10-12 02:22:00,52.0,51.0,30.04,ESE,110,0.0,-999.0,95,-99.99,,,-99.99,,2013-10-12 06:22:00,
2013-10-12 02:52:00,52.0,51.0,30.04,ESE,110,0.0,-999.0,95,-99.99,,,-99.99,,2013-10-12 06:52:00,
2013-10-12 03:22:00,51.0,50.0,30.04,ESE,110,0.0,-999.0,96,-99.99,,,-99.99,,2013-10-12 07:22:00,
2013-10-12 03:52:00,51.0,50.0,30.04,ESE,110,0.0,-999.0,96,-99.99,,,-99.99,,2013-10-12 07:52:00,
2013-10-12 04:22:00,50.0,49.0,30.04,ESE,110,0.0,-999.0,96,-99.99,,,-99.99,,2013-10-12 08:22:00,
2013-10-12 04:52:00,50.0,49.0,30.05,ESE,110,0.0,-999.0,96,-99.99,,,-99.99,,2013-10-12 08:52:00,
2013-10-12 05:22:00,49.0,48.0,30.05,ESE,110,0.0,-999.0,96,-99.99,,,-99.99,,2013-10-12 09:22:00,
2013-10-12 05:53:00,49.0,48.0,30.05,ESE,110,0.0,-999.0,96,-99.99,,,-99.99,,2013-10-12 09:53:00,
2013-10-12 06:23:00,49.0,48.0,30.06,ESE,110,0.0,-999.0,97,-99.99,,,-99.99,,2013-10-12 10:23:00,
2013-10-12 06:52:00,49.0,48.0,30.07,ESE,110,0.0,-999.0,97,-99.99,,,-99.99,,2013-10-12 10:52:00,
2013-10-12 07:22:00,48.0,47.0,30.07,ESE,110,0.0,-999.0,96,-99.99,,,-99.99,,2013-10-12 11:22:00,
2013-10-12 07:52:00,48.0,47.0,30.08,ESE,110,0.0,-999.0,96,-99.99,,,-99.99,,2013-10-12 11:52:00,
2013-10-12 08:22:00,48.0,47.0,30.09,ESE,110,0.0,-999.0,96,-99.99,,,-99.99,,2013-10-12 12:22:00,
2013-10-12 08:52:00,48.0,47.0,30.09,ESE,110,0.0,-999.0,97,-99.99,,,-99.99,,2013-10-12 12:52:00,
2013-10-12 09:22:00,50.0,49.0,30.10,ESE,110,0.0,-999.0,98,-99.99,,,-99.99,,2013-10-12 13:22:00,
2013-10-12 09:52:00,53.0,52.0,30.10,ESE,110,0.0,-999.0,98,-99.99,,,-99.99,,2013-10-12 13:52:00,
2013-10-12 10:21:00,57.0,56.0,30.11,ESE,110,0.0,-999.0,98,-99.99,,,-99.99,,2013-10-12 14:21:00,
2013-10-12 10:52:00,61.0,60.0,30.10,ESE,110,0.0,-999.0,98,-99.99,,,-99.99,,2013-10-12 14:52:00,
2013-10-12 11:22:00,66.0,60.0,30.10,ESE,105,0.0,-999.0,81,-99.99,,,-99.99,,2013-10-12 15:22:00,
2013-10-12 11:53:00,69.0,59.0,30.10,SSE,164,0.0,-999.0,71,-99.99,,,-99.99,,2013-10-12 15:53:00,
2013-10-12 12:23:00,71.0,57.0,30.09,NW,319,1.0,-999.0,62,-99.99,,,-99.99,,2013-10-12 16:23:00,
2013-10-12 12:53:00,71.0,59.0,30.09,East,100,1.0,-999.0,65,-99.99,,,-99.99,,2013-10-12 16:53:00,
2013-10-12 13:23:00,74.0,58.0,30.08,South,178,1.0,-999.0,57,-99.99,,,-99.99,,2013-10-12 17:23:00,
2013-10-12 13:53:00,75.0,58.0,30.08,WNW,283,1.0,-999.0,55,-99.99,,,-99.99,,2013-10-12 17:53:00,
2013-10-12 14:22:00,75.0,58.0,30.07,ENE,71,1.0,-999.0,56,-99.99,,,-99.99,,2013-10-12 18:22:00,
2013-10-12 14:52:00,77.0,59.0,30.06,SE,131,1.0,-999.0,53,-99.99,,,-99.99,,2013-10-12 18:52:00,
2013-10-12 15:22:00,76.0,58.0,30.06,SSE,154,1.0,-999.0,53,-99.99,,,-99.99,,2013-10-12 19:22:00,
2013-10-12 15:52:00,77.0,60.0,30.07,South,184,1.0,-999.0,55,-99.99,,,-99.99,,2013-10-12 19:52:00,
2013-10-12 16:22:00,75.0,59.0,30.07,WSW,237,1.0,-999.0,57,-99.99,,,-99.99,,2013-10-12 20:22:00,
2013-10-12 16:52:00,74.0,58.0,30.07,NNE,33,1.0,-999.0,57,-99.99,,,-99.99,,2013-10-12 20:52:00,
2013-10-12 17:22:00,73.0,59.0,30.07,South,182,1.0,-999.0,61,-99.99,,,-99.99,,2013-10-12 21:22:00,
2013-10-12 17:54:00,72.0,60.0,30.08,West,267,0.0,-999.0,65,-99.99,,,-99.99,,2013-10-12 21:54:00,
2013-10-12 18:13:00,71.0,60.0,30.08,West,279,1.0,-999.0,68,-99.99,,,-99.99,,2013-10-12 22:13:00,
2013-10-12 18:24:00,71.0,60.0,30.08,West,279,1.0,-999.0,68,-99.99,,,-99.99,,2013-10-12 22:24:00,
2013-10-12 18:33:00,71.0,60.0,30.08,West,279,1.0,-999.0,68,-99.99,,,-99.99,,2013-10-12 22:33:00,
2013-10-12 19:52:00,66.0,58.0,30.10,SSW,198,0.0,-999.0,75,-99.99,,,-99.99,,2013-10-12 23:52:00,
2013-10-12 20:22:00,64.0,56.0,30.09,SSW,202,0.0,-999.0,76,-99.99,,,-99.99,,2013-10-13 00:22:00,
2013-10-12 20:52:00,64.0,57.0,30.10,NW,305,1.0,-999.0,79,-99.99,,,-99.99,,2013-10-13 00:52:00,
2013-10-12 21:22:00,62.0,56.0,30.10,North,360,0.0,-999.0,82,-99.99,,,-99.99,,2013-10-13 01:22:00,
2013-10-12 21:52:00,61.0,57.0,30.10,NNE,26,0.0,-999.0,86,-99.99,,,-99.99,,2013-10-13 01:52:00,
2013-10-12 22:22:00,60.0,57.0,30.11,NNE,26,0.0,-999.0,89,-99.99,,,-99.99,,2013-10-13 02:22:00,
2013-10-12 22:52:00,58.0,55.0,30.12,NNE,26,0.0,-999.0,91,-99.99,,,-99.99,,2013-10-13 02:52:00,
2013-10-12 23:22:00,57.0,55.0,30.13,NNE,26,0.0,-999.0,93,-99.99,,,-99.99,,2013-10-13 03:22:00,
2013-10-12 23:54:00,56.0,54.0,30.14,NNE,26,0.0,-999.0,93,-99.99,,,-99.99,,2013-10-13 03:54:00,